Year,Month,Day,Hour,Minute,Value (Times are PST for temperature in C)
2012,07,15,00,00,19.60
2012,07,15,00,01,19.50
2012,07,15,00,02,19.50
2012,07,15,00,03,19.40
2012,07,15,00,04,19.40
2012,07,15,00,05,19.40
2012,07,15,00,06,19.30
2012,07,15,00,07,19.30
2012,07,15,00,08,19.30
2012,07,15,00,09,19.30
2012,07,15,00,10,19.20
2012,07,15,00,11,19.20
2012,07,15,00,12,19.20
2012,07,15,00,13,19.10
2012,07,15,00,14,19.10
2012,07,15,00,15,19.00
2012,07,15,00,16,19.00
2012,07,15,00,17,19.00
2012,07,15,00,18,18.90
2012,07,15,00,19,18.90
2012,07,15,00,20,18.90
2012,07,15,00,21,18.80
2012,07,15,00,22,18.80
2012,07,15,00,23,18.80
2012,07,15,00,24,18.70
2012,07,15,00,25,18.70
2012,07,15,00,26,18.70
2012,07,15,00,27,18.60
2012,07,15,00,28,18.60
2012,07,15,00,29,18.60
2012,07,15,00,30,18.60
2012,07,15,00,31,18.60
2012,07,15,00,32,18.60
2012,07,15,00,33,18.60
2012,07,15,00,34,18.60
2012,07,15,00,35,18.60
2012,07,15,00,36,18.60
2012,07,15,00,37,18.60
2012,07,15,00,38,18.60
2012,07,15,00,39,18.50
2012,07,15,00,40,18.50
2012,07,15,00,41,18.50
2012,07,15,00,42,18.40
2012,07,15,00,43,18.40
2012,07,15,00,44,18.40
2012,07,15,00,45,18.30
2012,07,15,00,46,18.30
2012,07,15,00,47,18.30
2012,07,15,00,48,18.20
2012,07,15,00,49,18.20
2012,07,15,00,50,18.20
2012,07,15,00,51,18.10
2012,07,15,00,52,18.10
2012,07,15,00,53,18.10
2012,07,15,00,54,18.10
2012,07,15,00,55,18.00
2012,07,15,00,56,18.00
2012,07,15,00,57,18.00
2012,07,15,00,58,17.90
2012,07,15,00,59,17.90
2012,07,15,01,00,17.90
2012,07,15,01,01,17.90
2012,07,15,01,02,17.90
2012,07,15,01,03,17.90
2012,07,15,01,04,17.90
2012,07,15,01,05,17.90
2012,07,15,01,06,17.80
2012,07,15,01,07,17.80
2012,07,15,01,08,17.80
2012,07,15,01,09,17.80
2012,07,15,01,10,17.80
2012,07,15,01,11,17.70
2012,07,15,01,12,17.70
2012,07,15,01,13,17.70
2012,07,15,01,14,17.70
2012,07,15,01,15,17.60
2012,07,15,01,16,17.60
2012,07,15,01,17,17.60
2012,07,15,01,18,17.60
2012,07,15,01,19,17.50
2012,07,15,01,20,17.50
2012,07,15,01,21,17.60
2012,07,15,01,22,17.60
2012,07,15,01,23,17.60
2012,07,15,01,24,17.60
2012,07,15,01,25,17.60
2012,07,15,01,26,17.60
2012,07,15,01,27,17.60
2012,07,15,01,28,17.60
2012,07,15,01,29,17.50
2012,07,15,01,30,17.50
2012,07,15,01,31,17.50
2012,07,15,01,32,17.50
2012,07,15,01,33,17.40
2012,07,15,01,34,17.40
2012,07,15,01,35,17.40
2012,07,15,01,36,17.40
2012,07,15,01,37,17.40
2012,07,15,01,38,17.40
2012,07,15,01,39,17.30
2012,07,15,01,40,17.30
2012,07,15,01,41,17.30
2012,07,15,01,42,17.30
2012,07,15,01,43,17.30
2012,07,15,01,44,17.30
2012,07,15,01,45,17.30
2012,07,15,01,46,17.30
2012,07,15,01,47,17.20
2012,07,15,01,48,17.20
2012,07,15,01,49,17.20
2012,07,15,01,50,17.20
2012,07,15,01,51,17.10
2012,07,15,01,52,17.10
2012,07,15,01,53,17.10
2012,07,15,01,54,17.10
2012,07,15,01,55,17.10
2012,07,15,01,56,17.10
2012,07,15,01,57,17.10
2012,07,15,01,58,17.10
2012,07,15,01,59,17.00
2012,07,15,02,00,17.00
2012,07,15,02,01,16.90
2012,07,15,02,02,16.90
2012,07,15,02,03,16.90
2012,07,15,02,04,16.90
2012,07,15,02,05,16.80
2012,07,15,02,06,16.80
2012,07,15,02,07,16.80
2012,07,15,02,08,16.80
2012,07,15,02,09,16.80
2012,07,15,02,10,16.70
2012,07,15,02,11,16.70
2012,07,15,02,12,16.70
2012,07,15,02,13,16.70
2012,07,15,02,14,16.70
2012,07,15,02,15,16.60
2012,07,15,02,16,16.60
2012,07,15,02,17,16.60
2012,07,15,02,18,16.50
2012,07,15,02,19,16.50
2012,07,15,02,20,16.50
2012,07,15,02,21,16.50
2012,07,15,02,22,16.50
2012,07,15,02,23,16.50
2012,07,15,02,24,16.50
2012,07,15,02,25,16.50
2012,07,15,02,26,16.50
2012,07,15,02,27,16.50
2012,07,15,02,28,16.40
2012,07,15,02,29,16.40
2012,07,15,02,30,16.40
2012,07,15,02,31,16.40
2012,07,15,02,32,16.40
2012,07,15,02,33,16.30
2012,07,15,02,34,16.30
2012,07,15,02,35,16.30
2012,07,15,02,36,16.30
2012,07,15,02,37,16.30
2012,07,15,02,38,16.30
2012,07,15,02,39,16.20
2012,07,15,02,40,16.20
2012,07,15,02,41,16.20
2012,07,15,02,42,16.20
2012,07,15,02,43,16.20
2012,07,15,02,44,16.20
2012,07,15,02,45,16.20
2012,07,15,02,46,16.20
2012,07,15,02,47,16.20
2012,07,15,02,48,16.20
2012,07,15,02,49,16.20
2012,07,15,02,50,16.20
2012,07,15,02,51,16.20
2012,07,15,02,52,16.20
2012,07,15,02,53,16.20
2012,07,15,02,54,16.20
2012,07,15,02,55,16.20
2012,07,15,02,56,16.20
2012,07,15,02,57,16.20
2012,07,15,02,58,16.20
2012,07,15,02,59,16.20
2012,07,15,03,00,16.20
2012,07,15,03,01,16.20
2012,07,15,03,02,16.20
2012,07,15,03,03,16.10
2012,07,15,03,04,16.10
2012,07,15,03,05,16.10
2012,07,15,03,06,16.00
2012,07,15,03,07,16.00
2012,07,15,03,08,16.00
2012,07,15,03,09,15.90
2012,07,15,03,10,15.90
2012,07,15,03,11,15.90
2012,07,15,03,12,15.90
2012,07,15,03,13,15.90
2012,07,15,03,14,15.90
2012,07,15,03,15,15.90
2012,07,15,03,16,15.90
2012,07,15,03,17,15.80
2012,07,15,03,18,15.80
2012,07,15,03,19,15.80
2012,07,15,03,20,15.80
2012,07,15,03,21,15.80
2012,07,15,03,22,15.80
2012,07,15,03,23,15.80
2012,07,15,03,24,15.80
2012,07,15,03,25,15.80
2012,07,15,03,26,15.80
2012,07,15,03,27,15.80
2012,07,15,03,28,15.80
2012,07,15,03,29,15.80
2012,07,15,03,30,15.70
2012,07,15,03,31,15.70
2012,07,15,03,32,15.70
2012,07,15,03,33,15.60
2012,07,15,03,34,15.60
2012,07,15,03,35,15.60
2012,07,15,03,36,15.50
2012,07,15,03,37,15.50
2012,07,15,03,38,15.50
2012,07,15,03,39,15.40
2012,07,15,03,40,15.40
2012,07,15,03,41,15.40
2012,07,15,03,42,15.40
2012,07,15,03,43,15.30
2012,07,15,03,44,15.30
2012,07,15,03,45,15.30
2012,07,15,03,46,15.30
2012,07,15,03,47,15.30
2012,07,15,03,48,15.30
2012,07,15,03,49,15.30
2012,07,15,03,50,15.30
2012,07,15,03,51,15.30
2012,07,15,03,52,15.30
2012,07,15,03,53,15.30
2012,07,15,03,54,15.30
2012,07,15,03,55,15.30
2012,07,15,03,56,15.30
2012,07,15,03,57,15.30
2012,07,15,03,58,15.30
2012,07,15,03,59,15.30
2012,07,15,04,00,15.30
2012,07,15,04,01,15.30
2012,07,15,04,02,15.30
2012,07,15,04,03,15.30
2012,07,15,04,04,15.30
2012,07,15,04,05,15.30
2012,07,15,04,06,15.20
2012,07,15,04,07,15.20
2012,07,15,04,08,15.20
2012,07,15,04,09,15.20
2012,07,15,04,10,15.20
2012,07,15,04,11,15.20
2012,07,15,04,12,15.10
2012,07,15,04,13,15.10
2012,07,15,04,14,15.10
2012,07,15,04,15,15.10
2012,07,15,04,16,15.10
2012,07,15,04,17,15.10
2012,07,15,04,18,15.00
2012,07,15,04,19,15.00
2012,07,15,04,20,15.00
2012,07,15,04,21,15.00
2012,07,15,04,22,15.00
2012,07,15,04,23,14.90
2012,07,15,04,24,14.90
2012,07,15,04,25,14.90
2012,07,15,04,26,14.90
2012,07,15,04,27,14.90
2012,07,15,04,28,14.90
2012,07,15,04,29,14.90
2012,07,15,04,30,14.80
2012,07,15,04,31,14.80
2012,07,15,04,32,14.80
2012,07,15,04,33,14.80
2012,07,15,04,34,14.70
2012,07,15,04,35,14.70
2012,07,15,04,36,14.70
2012,07,15,04,37,14.70
2012,07,15,04,38,14.60
2012,07,15,04,39,14.60
2012,07,15,04,40,14.60
2012,07,15,04,41,14.60
2012,07,15,04,42,14.50
2012,07,15,04,43,14.50
2012,07,15,04,44,14.50
2012,07,15,04,45,14.40
2012,07,15,04,46,14.40
2012,07,15,04,47,14.30
2012,07,15,04,48,14.30
2012,07,15,04,49,14.20
2012,07,15,04,50,14.20
2012,07,15,04,51,14.20
2012,07,15,04,52,14.10
2012,07,15,04,53,14.10
2012,07,15,04,54,14.10
2012,07,15,04,55,14.10
2012,07,15,04,56,14.00
2012,07,15,04,57,14.00
2012,07,15,04,58,14.00
2012,07,15,04,59,13.90
2012,07,15,05,00,13.90
2012,07,15,05,01,13.90
2012,07,15,05,02,13.80
2012,07,15,05,03,13.80
2012,07,15,05,04,13.80
2012,07,15,05,05,13.80
2012,07,15,05,06,13.90
2012,07,15,05,07,13.90
2012,07,15,05,08,13.90
2012,07,15,05,09,13.90
2012,07,15,05,10,14.00
2012,07,15,05,11,14.00
2012,07,15,05,12,14.00
2012,07,15,05,13,13.90
2012,07,15,05,14,13.80
2012,07,15,05,15,13.70
2012,07,15,05,16,13.70
2012,07,15,05,17,13.60
2012,07,15,05,18,13.60
2012,07,15,05,19,13.50
2012,07,15,05,20,13.50
2012,07,15,05,21,13.40
2012,07,15,05,22,13.40
2012,07,15,05,23,13.40
2012,07,15,05,24,13.30
2012,07,15,05,25,13.30
2012,07,15,05,26,13.30
2012,07,15,05,27,13.20
2012,07,15,05,28,13.10
2012,07,15,05,29,13.10
2012,07,15,05,30,13.10
2012,07,15,05,31,13.00
2012,07,15,05,32,13.00
2012,07,15,05,33,13.00
2012,07,15,05,34,12.90
2012,07,15,05,35,12.90
2012,07,15,05,36,12.90
2012,07,15,05,37,12.90
2012,07,15,05,38,12.80
2012,07,15,05,39,12.80
2012,07,15,05,40,12.80
2012,07,15,05,41,12.70
2012,07,15,05,42,12.70
2012,07,15,05,43,12.70
2012,07,15,05,44,12.70
2012,07,15,05,45,12.70
2012,07,15,05,46,12.70
2012,07,15,05,47,12.60
2012,07,15,05,48,12.60
2012,07,15,05,49,12.60
2012,07,15,05,50,12.60
2012,07,15,05,51,12.60
2012,07,15,05,52,12.60
2012,07,15,05,53,12.60
2012,07,15,05,54,12.60
2012,07,15,05,55,12.60
2012,07,15,05,56,12.60
2012,07,15,05,57,12.60
2012,07,15,05,58,12.60
2012,07,15,05,59,12.60
2012,07,15,06,00,12.70
2012,07,15,06,01,12.70
2012,07,15,06,02,12.70
2012,07,15,06,03,12.70
2012,07,15,06,04,12.70
2012,07,15,06,05,12.70
2012,07,15,06,06,12.70
2012,07,15,06,07,12.70
2012,07,15,06,08,12.80
2012,07,15,06,09,12.80
2012,07,15,06,10,12.70
2012,07,15,06,11,12.70
2012,07,15,06,12,12.70
2012,07,15,06,13,12.70
2012,07,15,06,14,12.70
2012,07,15,06,15,12.70
2012,07,15,06,16,12.70
2012,07,15,06,17,12.70
2012,07,15,06,18,12.70
2012,07,15,06,19,12.70
2012,07,15,06,20,12.70
2012,07,15,06,21,12.70
2012,07,15,06,22,12.70
2012,07,15,06,23,12.70
2012,07,15,06,24,12.70
2012,07,15,06,25,12.70
2012,07,15,06,26,12.70
2012,07,15,06,27,12.70
2012,07,15,06,28,12.70
2012,07,15,06,29,12.70
2012,07,15,06,30,12.70
2012,07,15,06,31,12.70
2012,07,15,06,32,12.70
2012,07,15,06,33,12.70
2012,07,15,06,34,12.70
2012,07,15,06,35,12.60
2012,07,15,06,36,12.60
2012,07,15,06,37,12.60
2012,07,15,06,38,12.60
2012,07,15,06,39,12.60
2012,07,15,06,40,12.60
2012,07,15,06,41,12.70
2012,07,15,06,42,12.70
2012,07,15,06,43,12.80
2012,07,15,06,44,12.80
2012,07,15,06,45,12.90
2012,07,15,06,46,12.90
2012,07,15,06,47,12.90
2012,07,15,06,48,12.90
2012,07,15,06,49,12.90
2012,07,15,06,50,12.90
2012,07,15,06,51,12.90
2012,07,15,06,52,12.90
2012,07,15,06,53,12.90
2012,07,15,06,54,12.90
2012,07,15,06,55,13.00
2012,07,15,06,56,13.00
2012,07,15,06,57,13.00
2012,07,15,06,58,13.00
2012,07,15,06,59,13.00
2012,07,15,07,00,13.00
2012,07,15,07,01,13.10
2012,07,15,07,02,13.10
2012,07,15,07,03,13.10
2012,07,15,07,04,13.10
2012,07,15,07,05,13.20
2012,07,15,07,06,13.20
2012,07,15,07,07,13.30
2012,07,15,07,08,13.30
2012,07,15,07,09,13.30
2012,07,15,07,10,13.40
2012,07,15,07,11,13.40
2012,07,15,07,12,13.50
2012,07,15,07,13,13.50
2012,07,15,07,14,13.60
2012,07,15,07,15,13.60
2012,07,15,07,16,13.70
2012,07,15,07,17,13.80
2012,07,15,07,18,13.80
2012,07,15,07,19,13.90
2012,07,15,07,20,13.90
2012,07,15,07,21,13.90
2012,07,15,07,22,14.00
2012,07,15,07,23,14.00
2012,07,15,07,24,14.10
2012,07,15,07,25,14.20
2012,07,15,07,26,14.30
2012,07,15,07,27,14.40
2012,07,15,07,28,14.50
2012,07,15,07,29,14.60
2012,07,15,07,30,14.70
2012,07,15,07,31,14.80
2012,07,15,07,32,14.90
2012,07,15,07,33,15.00
2012,07,15,07,34,15.10
2012,07,15,07,35,15.20
2012,07,15,07,36,15.20
2012,07,15,07,37,15.30
2012,07,15,07,38,15.40
2012,07,15,07,39,15.40
2012,07,15,07,40,15.40
2012,07,15,07,41,15.40
2012,07,15,07,42,15.40
2012,07,15,07,43,15.40
2012,07,15,07,44,15.40
2012,07,15,07,45,15.40
2012,07,15,07,46,15.50
2012,07,15,07,47,15.50
2012,07,15,07,48,15.60
2012,07,15,07,49,15.60
2012,07,15,07,50,15.70
2012,07,15,07,51,15.70
2012,07,15,07,52,15.80
2012,07,15,07,53,15.80
2012,07,15,07,54,15.80
2012,07,15,07,55,15.90
2012,07,15,07,56,15.90
2012,07,15,07,57,16.00
2012,07,15,07,58,16.10
2012,07,15,07,59,16.10
2012,07,15,08,00,16.10
2012,07,15,08,01,16.10
2012,07,15,08,02,16.10
2012,07,15,08,03,16.10
2012,07,15,08,04,16.10
2012,07,15,08,05,16.10
2012,07,15,08,06,16.10
2012,07,15,08,07,16.10
2012,07,15,08,08,16.10
2012,07,15,08,09,16.10
2012,07,15,08,10,16.10
2012,07,15,08,11,16.10
2012,07,15,08,12,16.10
2012,07,15,08,13,16.20
2012,07,15,08,14,16.20
2012,07,15,08,15,16.20
2012,07,15,08,16,16.20
2012,07,15,08,17,16.30
2012,07,15,08,18,16.30
2012,07,15,08,19,16.40
2012,07,15,08,20,16.40
2012,07,15,08,21,16.50
2012,07,15,08,22,16.60
2012,07,15,08,23,16.60
2012,07,15,08,24,16.70
2012,07,15,08,25,16.70
2012,07,15,08,26,16.80
2012,07,15,08,27,16.80
2012,07,15,08,28,16.90
2012,07,15,08,29,16.90
2012,07,15,08,30,17.00
2012,07,15,08,31,17.10
2012,07,15,08,32,17.10
2012,07,15,08,33,17.20
2012,07,15,08,34,17.20
2012,07,15,08,35,17.20
2012,07,15,08,36,17.20
2012,07,15,08,37,17.20
2012,07,15,08,38,17.30
2012,07,15,08,39,17.30
2012,07,15,08,40,17.40
2012,07,15,08,41,17.40
2012,07,15,08,42,17.40
2012,07,15,08,43,17.40
2012,07,15,08,44,17.40
2012,07,15,08,45,17.40
2012,07,15,08,46,17.40
2012,07,15,08,47,17.40
2012,07,15,08,48,17.40
2012,07,15,08,49,17.40
2012,07,15,08,50,17.40
2012,07,15,08,51,17.40
2012,07,15,08,52,17.40
2012,07,15,08,53,17.50
2012,07,15,08,54,17.50
2012,07,15,08,55,17.50
2012,07,15,08,56,17.50
2012,07,15,08,57,17.60
2012,07,15,08,58,17.60
2012,07,15,08,59,17.60
2012,07,15,09,00,17.60
2012,07,15,09,01,17.70
2012,07,15,09,02,17.70
2012,07,15,09,03,17.70
2012,07,15,09,04,17.70
2012,07,15,09,05,17.80
2012,07,15,09,06,17.80
2012,07,15,09,07,17.80
2012,07,15,09,08,17.90
2012,07,15,09,09,18.00
2012,07,15,09,10,18.10
2012,07,15,09,11,18.20
2012,07,15,09,12,18.20
2012,07,15,09,13,18.20
2012,07,15,09,14,18.20
2012,07,15,09,15,18.20
2012,07,15,09,16,18.20
2012,07,15,09,17,18.20
2012,07,15,09,18,18.30
2012,07,15,09,19,18.30
2012,07,15,09,20,18.30
2012,07,15,09,21,18.30
2012,07,15,09,22,18.30
2012,07,15,09,23,18.30
2012,07,15,09,24,18.40
2012,07,15,09,25,18.50
2012,07,15,09,26,18.50
2012,07,15,09,27,18.50
2012,07,15,09,28,18.60
2012,07,15,09,29,18.60
2012,07,15,09,30,18.60
2012,07,15,09,31,18.60
2012,07,15,09,32,18.70
2012,07,15,09,33,18.70
2012,07,15,09,34,18.70
2012,07,15,09,35,18.70
2012,07,15,09,36,18.70
2012,07,15,09,37,18.80
2012,07,15,09,38,18.80
2012,07,15,09,39,18.80
2012,07,15,09,40,18.90
2012,07,15,09,41,18.90
2012,07,15,09,42,19.00
2012,07,15,09,43,19.10
2012,07,15,09,44,19.20
2012,07,15,09,45,19.30
2012,07,15,09,46,19.40
2012,07,15,09,47,19.50
2012,07,15,09,48,19.60
2012,07,15,09,49,19.70
2012,07,15,09,50,19.70
2012,07,15,09,51,19.80
2012,07,15,09,52,19.90
2012,07,15,09,53,20.00
2012,07,15,09,54,20.00
2012,07,15,09,55,20.10
2012,07,15,09,56,20.00
2012,07,15,09,57,20.00
2012,07,15,09,58,20.00
2012,07,15,09,59,20.00
2012,07,15,10,00,19.90
2012,07,15,10,01,20.00
2012,07,15,10,02,20.00
2012,07,15,10,03,20.00
2012,07,15,10,04,20.10
2012,07,15,10,05,20.10
2012,07,15,10,06,20.20
2012,07,15,10,07,20.20
2012,07,15,10,08,20.20
2012,07,15,10,09,20.30
2012,07,15,10,10,20.30
2012,07,15,10,11,20.40
2012,07,15,10,12,20.50
2012,07,15,10,13,20.50
2012,07,15,10,14,20.60
2012,07,15,10,15,20.70
2012,07,15,10,16,20.80
2012,07,15,10,17,21.00
2012,07,15,10,18,21.10
2012,07,15,10,19,21.20
2012,07,15,10,20,21.30
2012,07,15,10,21,21.30
2012,07,15,10,22,21.30
2012,07,15,10,23,21.30
2012,07,15,10,24,21.20
2012,07,15,10,25,21.30
2012,07,15,10,26,21.20
2012,07,15,10,27,21.20
2012,07,15,10,28,21.20
2012,07,15,10,29,21.30
2012,07,15,10,30,21.30
2012,07,15,10,31,21.40
2012,07,15,10,32,21.40
2012,07,15,10,33,21.40
2012,07,15,10,34,21.40
2012,07,15,10,35,21.40
2012,07,15,10,36,21.40
2012,07,15,10,37,21.40
2012,07,15,10,38,21.40
2012,07,15,10,39,21.40
2012,07,15,10,40,21.40
2012,07,15,10,41,21.50
2012,07,15,10,42,21.50
2012,07,15,10,43,21.60
2012,07,15,10,44,21.70
2012,07,15,10,45,21.80
2012,07,15,10,46,21.80
2012,07,15,10,47,21.90
2012,07,15,10,48,22.00
2012,07,15,10,49,22.10
2012,07,15,10,50,22.20
2012,07,15,10,51,22.20
2012,07,15,10,52,22.30
2012,07,15,10,53,22.40
2012,07,15,10,54,22.60
2012,07,15,10,55,22.70
2012,07,15,10,56,22.80
2012,07,15,10,57,22.80
2012,07,15,10,58,22.90
2012,07,15,10,59,22.90
2012,07,15,11,00,22.80
2012,07,15,11,01,22.70
2012,07,15,11,02,22.70
2012,07,15,11,03,22.70
2012,07,15,11,04,22.70
2012,07,15,11,05,22.80
2012,07,15,11,06,22.80
2012,07,15,11,07,22.80
2012,07,15,11,08,22.80
2012,07,15,11,09,22.90
2012,07,15,11,10,22.90
2012,07,15,11,11,23.10
2012,07,15,11,12,23.10
2012,07,15,11,13,23.20
2012,07,15,11,14,23.20
2012,07,15,11,15,23.10
2012,07,15,11,16,23.10
2012,07,15,11,17,23.10
2012,07,15,11,18,23.20
2012,07,15,11,19,23.20
2012,07,15,11,20,23.20
2012,07,15,11,21,23.20
2012,07,15,11,22,23.30
2012,07,15,11,23,23.30
2012,07,15,11,24,23.40
2012,07,15,11,25,23.60
2012,07,15,11,26,23.70
2012,07,15,11,27,23.80
2012,07,15,11,28,23.80
2012,07,15,11,29,23.80
2012,07,15,11,30,23.90
2012,07,15,11,31,23.90
2012,07,15,11,32,24.00
2012,07,15,11,33,24.00
2012,07,15,11,34,24.00
2012,07,15,11,35,24.00
2012,07,15,11,36,23.90
2012,07,15,11,37,23.90
2012,07,15,11,38,24.00
2012,07,15,11,39,24.00
2012,07,15,11,40,24.00
2012,07,15,11,41,24.00
2012,07,15,11,42,23.90
2012,07,15,11,43,23.90
2012,07,15,11,44,23.90
2012,07,15,11,45,24.00
2012,07,15,11,46,24.00
2012,07,15,11,47,24.10
2012,07,15,11,48,24.20
2012,07,15,11,49,24.30
2012,07,15,11,50,24.40
2012,07,15,11,51,24.40
2012,07,15,11,52,24.30
2012,07,15,11,53,24.30
2012,07,15,11,54,24.30
2012,07,15,11,55,24.30
2012,07,15,11,56,24.30
2012,07,15,11,57,24.30
2012,07,15,11,58,24.30
2012,07,15,11,59,24.40
2012,07,15,12,00,24.50
2012,07,15,12,01,24.60
2012,07,15,12,02,24.70
2012,07,15,12,03,24.80
2012,07,15,12,04,24.80
2012,07,15,12,05,24.70
2012,07,15,12,06,24.70
2012,07,15,12,07,24.70
2012,07,15,12,08,24.70
2012,07,15,12,09,24.70
2012,07,15,12,10,24.60
2012,07,15,12,11,24.60
2012,07,15,12,12,24.60
2012,07,15,12,13,24.60
2012,07,15,12,14,24.60
2012,07,15,12,15,24.60
2012,07,15,12,16,24.70
2012,07,15,12,17,24.80
2012,07,15,12,18,24.80
2012,07,15,12,19,24.90
2012,07,15,12,20,25.00
2012,07,15,12,21,25.20
2012,07,15,12,22,25.30
2012,07,15,12,23,25.50
2012,07,15,12,24,25.60
2012,07,15,12,25,25.80
2012,07,15,12,26,25.80
2012,07,15,12,27,25.90
2012,07,15,12,28,25.90
2012,07,15,12,29,26.00
2012,07,15,12,30,26.10
2012,07,15,12,31,26.20
2012,07,15,12,32,26.20
2012,07,15,12,33,26.20
2012,07,15,12,34,26.20
2012,07,15,12,35,26.10
2012,07,15,12,36,26.10
2012,07,15,12,37,26.10
2012,07,15,12,38,26.10
2012,07,15,12,39,26.20
2012,07,15,12,40,26.20
2012,07,15,12,41,26.30
2012,07,15,12,42,26.30
2012,07,15,12,43,26.20
2012,07,15,12,44,26.30
2012,07,15,12,45,26.40
2012,07,15,12,46,26.50
2012,07,15,12,47,26.60
2012,07,15,12,48,26.70
2012,07,15,12,49,26.70
2012,07,15,12,50,26.70
2012,07,15,12,51,26.70
2012,07,15,12,52,26.80
2012,07,15,12,53,26.80
2012,07,15,12,54,26.80
2012,07,15,12,55,26.80
2012,07,15,12,56,26.80
2012,07,15,12,57,26.90
2012,07,15,12,58,26.90
2012,07,15,12,59,27.00
2012,07,15,13,00,27.10
2012,07,15,13,01,27.10
2012,07,15,13,02,27.20
2012,07,15,13,03,27.20
2012,07,15,13,04,27.20
2012,07,15,13,05,27.20
2012,07,15,13,06,27.20
2012,07,15,13,07,27.20
2012,07,15,13,08,27.30
2012,07,15,13,09,27.40
2012,07,15,13,10,27.50
2012,07,15,13,11,27.60
2012,07,15,13,12,27.70
2012,07,15,13,13,27.70
2012,07,15,13,14,27.70
2012,07,15,13,15,27.70
2012,07,15,13,16,27.80
2012,07,15,13,17,27.80
2012,07,15,13,18,27.80
2012,07,15,13,19,27.80
2012,07,15,13,20,27.90
2012,07,15,13,21,27.90
2012,07,15,13,22,28.00
2012,07,15,13,23,28.00
2012,07,15,13,24,28.00
2012,07,15,13,25,28.10
2012,07,15,13,26,28.10
2012,07,15,13,27,28.00
2012,07,15,13,28,28.00
2012,07,15,13,29,27.90
2012,07,15,13,30,27.90
2012,07,15,13,31,28.00
2012,07,15,13,32,28.00
2012,07,15,13,33,28.10
2012,07,15,13,34,28.20
2012,07,15,13,35,28.30
2012,07,15,13,36,28.40
2012,07,15,13,37,28.50
2012,07,15,13,38,28.60
2012,07,15,13,39,28.60
2012,07,15,13,40,28.60
2012,07,15,13,41,28.60
2012,07,15,13,42,28.60
2012,07,15,13,43,28.60
2012,07,15,13,44,28.60
2012,07,15,13,45,28.60
2012,07,15,13,46,28.60
2012,07,15,13,47,28.60
2012,07,15,13,48,28.60
2012,07,15,13,49,28.70
2012,07,15,13,50,28.70
2012,07,15,13,51,28.80
2012,07,15,13,52,28.80
2012,07,15,13,53,28.90
2012,07,15,13,54,28.90
2012,07,15,13,55,28.90
2012,07,15,13,56,29.00
2012,07,15,13,57,29.00
2012,07,15,13,58,29.10
2012,07,15,13,59,29.10
2012,07,15,14,00,29.20
2012,07,15,14,01,29.20
2012,07,15,14,02,29.20
2012,07,15,14,03,29.20
2012,07,15,14,04,29.20
2012,07,15,14,05,29.20
2012,07,15,14,06,29.20
2012,07,15,14,07,29.20
2012,07,15,14,08,29.20
2012,07,15,14,09,29.20
2012,07,15,14,10,29.20
2012,07,15,14,11,29.20
2012,07,15,14,12,29.30
2012,07,15,14,13,29.40
2012,07,15,14,14,29.50
2012,07,15,14,15,29.60
2012,07,15,14,16,29.60
2012,07,15,14,17,29.60
2012,07,15,14,18,29.70
2012,07,15,14,19,29.70
2012,07,15,14,20,29.80
2012,07,15,14,21,29.90
2012,07,15,14,22,29.90
2012,07,15,14,23,29.80
2012,07,15,14,24,29.90
2012,07,15,14,25,29.90
2012,07,15,14,26,29.90
2012,07,15,14,27,30.00
2012,07,15,14,28,30.10
2012,07,15,14,29,30.10
2012,07,15,14,30,30.20
2012,07,15,14,31,30.10
2012,07,15,14,32,30.20
2012,07,15,14,33,30.20
2012,07,15,14,34,30.20
2012,07,15,14,35,30.20
2012,07,15,14,36,30.30
2012,07,15,14,37,30.30
2012,07,15,14,38,30.30
2012,07,15,14,39,30.20
2012,07,15,14,40,30.10
2012,07,15,14,41,30.10
2012,07,15,14,42,30.10
2012,07,15,14,43,30.00
2012,07,15,14,44,29.90
2012,07,15,14,45,29.90
2012,07,15,14,46,29.80
2012,07,15,14,47,29.80
2012,07,15,14,48,29.80
2012,07,15,14,49,29.90
2012,07,15,14,50,29.90
2012,07,15,14,51,29.90
2012,07,15,14,52,29.90
2012,07,15,14,53,29.80
2012,07,15,14,54,29.80
2012,07,15,14,55,29.80
2012,07,15,14,56,29.90
2012,07,15,14,57,29.90
2012,07,15,14,58,30.00
2012,07,15,14,59,30.00
2012,07,15,15,00,30.00
2012,07,15,15,01,30.00
2012,07,15,15,02,30.00
2012,07,15,15,03,30.00
2012,07,15,15,04,30.00
2012,07,15,15,05,30.10
2012,07,15,15,06,30.30
2012,07,15,15,07,30.40
2012,07,15,15,08,30.50
2012,07,15,15,09,30.50
2012,07,15,15,10,30.50
2012,07,15,15,11,30.40
2012,07,15,15,12,30.50
2012,07,15,15,13,30.50
2012,07,15,15,14,30.50
2012,07,15,15,15,30.50
2012,07,15,15,16,30.50
2012,07,15,15,17,30.50
2012,07,15,15,18,30.40
2012,07,15,15,19,30.40
2012,07,15,15,20,30.50
2012,07,15,15,21,30.60
2012,07,15,15,22,30.70
2012,07,15,15,23,30.70
2012,07,15,15,24,30.70
2012,07,15,15,25,30.70
2012,07,15,15,26,30.80
2012,07,15,15,27,30.80
2012,07,15,15,28,30.90
2012,07,15,15,29,31.00
2012,07,15,15,30,31.00
2012,07,15,15,31,31.00
2012,07,15,15,32,31.10
2012,07,15,15,33,31.10
2012,07,15,15,34,31.10
2012,07,15,15,35,31.00
2012,07,15,15,36,31.10
2012,07,15,15,37,31.10
2012,07,15,15,38,31.00
2012,07,15,15,39,30.90
2012,07,15,15,40,30.90
2012,07,15,15,41,30.80
2012,07,15,15,42,30.70
2012,07,15,15,43,30.60
2012,07,15,15,44,30.40
2012,07,15,15,45,30.30
2012,07,15,15,46,30.20
2012,07,15,15,47,30.20
2012,07,15,15,48,30.20
2012,07,15,15,49,30.20
2012,07,15,15,50,30.20
2012,07,15,15,51,30.20
2012,07,15,15,52,30.30
2012,07,15,15,53,30.30
2012,07,15,15,54,30.40
2012,07,15,15,55,30.50
2012,07,15,15,56,30.60
2012,07,15,15,57,30.70
2012,07,15,15,58,30.70
2012,07,15,15,59,30.80
2012,07,15,16,00,30.60
2012,07,15,16,01,30.50
2012,07,15,16,02,30.40
2012,07,15,16,03,30.40
2012,07,15,16,04,30.40
2012,07,15,16,05,30.40
2012,07,15,16,06,30.50
2012,07,15,16,07,30.60
2012,07,15,16,08,30.60
2012,07,15,16,09,30.60
2012,07,15,16,10,30.60
2012,07,15,16,11,30.60
2012,07,15,16,12,30.50
2012,07,15,16,13,30.40
2012,07,15,16,14,30.30
2012,07,15,16,15,30.30
2012,07,15,16,16,30.30
2012,07,15,16,17,30.30
2012,07,15,16,18,30.40
2012,07,15,16,19,30.50
2012,07,15,16,20,30.50
2012,07,15,16,21,30.50
2012,07,15,16,22,30.40
2012,07,15,16,23,30.40
2012,07,15,16,24,30.40
2012,07,15,16,25,30.30
2012,07,15,16,26,30.20
2012,07,15,16,27,30.30
2012,07,15,16,28,30.30
2012,07,15,16,29,30.30
2012,07,15,16,30,30.30
2012,07,15,16,31,30.20
2012,07,15,16,32,30.20
2012,07,15,16,33,30.20
2012,07,15,16,34,30.20
2012,07,15,16,35,30.30
2012,07,15,16,36,30.50
2012,07,15,16,37,30.60
2012,07,15,16,38,30.70
2012,07,15,16,39,30.80
2012,07,15,16,40,30.90
2012,07,15,16,41,31.00
2012,07,15,16,42,31.10
2012,07,15,16,43,31.10
2012,07,15,16,44,31.10
2012,07,15,16,45,31.00
2012,07,15,16,46,31.10
2012,07,15,16,47,31.10
2012,07,15,16,48,31.10
2012,07,15,16,49,31.10
2012,07,15,16,50,31.20
2012,07,15,16,51,31.20
2012,07,15,16,52,31.20
2012,07,15,16,53,31.20
2012,07,15,16,54,31.20
2012,07,15,16,55,31.00
2012,07,15,16,56,30.90
2012,07,15,16,57,30.90
2012,07,15,16,58,30.90
2012,07,15,16,59,31.00
2012,07,15,17,00,31.00
2012,07,15,17,01,31.00
2012,07,15,17,02,31.10
2012,07,15,17,03,31.20
2012,07,15,17,04,31.30
2012,07,15,17,05,31.30
2012,07,15,17,06,31.40
2012,07,15,17,07,31.50
2012,07,15,17,08,31.60
2012,07,15,17,09,31.50
2012,07,15,17,10,31.40
2012,07,15,17,11,31.30
2012,07,15,17,12,31.20
2012,07,15,17,13,31.00
2012,07,15,17,14,30.90
2012,07,15,17,15,30.80
2012,07,15,17,16,30.70
2012,07,15,17,17,30.60
2012,07,15,17,18,30.50
2012,07,15,17,19,30.50